Regional Weather Roundup
Issued by NWS

Home | Current Version | Previous Version | Text Only | Print | Product List | Glossary On
Versions: 1 2 3 4 5 6 7 8 9 10 11 12 13 14 15 16 17 18 19 20 21 22 23 24 25 26 27 28 29 30 31 32 33 34 35 36 37 38 39 40 41 42 43 44 45 46 47 48 49 50
000
ASUS42 KFFC 091410
RWRGA
WEATHER ROUNDUP FOR GEORGIA
NATIONAL WEATHER SERVICE PEACHTREE CITY GA
900 AM EST FRI DEC 09 2016

NOTE: "FAIR" INDICATES FEW OR NO CLOUDS BELOW 12,000 FEET WITH NO
SIGNIFICANT WEATHER AND/OR OBSTRUCTIONS TO VISIBILITY.

* = USE WITH CAUTION. THE STATIONS MARKED WITH AN ASTERISK MAY NOT
REPORT WEATHER SUCH AS PRECIPITATION, FOG, OR THUNDER AND ARE NOT
QUALITY CONTROLLED BY NWS.

THE REMARK "TC" DENOTES TEMPERATURE READING IN DEGREES CELSIUS.

GAZ001>058-091500-
NORTH GEORGIA

CITY           SKY/WX    TMP DP  RH WIND       PRES   REMARKS
ATLANTA        SUNNY     29  17  61 NW14      30.45R WCI  18
ATHENS         SUNNY     31  17  56 NW8       30.42R WCI  23
CHAMBLEE       SUNNY     29  15  56 NW10      30.45R WCI  20
PEACHTREE CITY SUNNY     30  16  56 NW14      30.48R WCI  19
ROME           SUNNY     28  16  60 N12       30.53R WCI  18
WEST ATLANTA   SUNNY     29  15  56 NW12      30.47S WCI  19
GAINESVILLE    SUNNY     29  15  56 NW10      30.41R WCI  20
CARTERSVILLE   SUNNY     28  17  63 VRB5      30.52R WCI  23


CITY           SKY/WX    TMP DP  RH WIND       PRES   REMARKS
DALTON*        SUNNY     28  21  74 NW10      30.53R WCI  19
LAWRENCEVILLE* SUNNY     30  16  55 NW14      30.45R WCI  20
MARIETTA       SUNNY     28  15  58 NW14      30.45R WCI  17
KENNESAW*      SUNNY     27  14  59 NW7G16      N/A  WCI  19
CANTON*        SUNNY     28  14  54 W3        30.46R
$$

GAZ059>098-102>109-091500-
CENTRAL GEORGIA

CITY           SKY/WX    TMP DP  RH WIND       PRES   REMARKS
AUGUSTA-BUSH   SUNNY     39  25  57 N6        30.44R WCI  35
AUGUSTA-DANIEL SUNNY     37  22  54 NW7       30.44R WCI  32
COLUMBUS       SUNNY     32  15  49 N8        30.49R WCI  25
MACON          SUNNY     34  17  50 NW10      30.46R WCI  26
ROBINS AFB     SUNNY     35  18  49 N12       30.46R WCI  27


CITY           SKY/WX    TMP DP  RH WIND       PRES   REMARKS
LAGRANGE*      SUNNY     32  20  61 N7        30.50R WCI  26
SYLVANIA*      SUNNY    N/A N/A N/A N6        30.45R
MILLEDGEVILLE* SUNNY     34  25  69 NW8       30.46R WCI  27
$$

GAZ099>101-110>166-091500-
SOUTH GEORGIA

CITY           SKY/WX    TMP DP  RH WIND       PRES   REMARKS
SAVANNAH       MOSUNNY   42  26  53 N9        30.43R
VALDOSTA       PTSUNNY   40  24  53 N13       30.43R WCI  32
ALMA           SUNNY     40  23  50 N12G17    30.44R WCI  33
ST SIMONS      MOSUNNY   43  26  51 N13       30.39R
FT STEWART     SUNNY     42  25  49 N9        30.41R
ALBANY         SUNNY     39  18  42 N8        30.50R WCI  33
HUNTER AFB     SUNNY     43  29  59 N10       30.39R
MOODY AFB      PTSUNNY   40  23  52 N14       30.42R WCI  32
BRUNSWICK      MOSUNNY   43  32  65 N7        30.41S


CITY           SKY/WX    TMP DP  RH WIND       PRES   REMARKS
BAINBRIDGE*    SUNNY     41  25  52 N13       30.48R
MOULTRIE*      SUNNY     39  23  52 N8        30.46R WCI  34
VIDALIA*       SUNNY     39  28  65 N13       30.45R WCI  32
WAYCROSS*      SUNNY     43  29  57 N10       30.43R
DOUGLAS*       SUNNY     39  21  48 N14       30.46R WCI  31
$$




USA.gov is the U.S. government's official web portal to all federal, state and local government web resources and services.